Regional Weather Roundup
Issued by NWS

Home | Current Version | Previous Version | Text Only | Print | Product List | Glossary Off
Versions: 1 2 3 4 5 6 7 8 9 10 11 12 13 14 15 16 17 18 19 20 21 22 23 24 25 26 27 28 29 30 31 32 33 34 35 36 37 38 39 40 41 42 43 44 45 46 47 48 49 50

000
ASUS43 KMKX 271111
RWRWI

WISCONSIN REGIONAL WEATHER ROUNDUP
NATIONAL WEATHER SERVICE MILWAUKEE/SULLIVAN WI
600 AM CDT MON APR 27 2015

NOTE: "FAIR" INDICATES FEW OR NO CLOUDS BELOW 12,000 FEET WITH NO
SIGNIFICANT WEATHER AND/OR OBSTRUCTIONS TO VISIBILITY.

WIZ001-002-006>008-014>016-023>028-271200-
NORTHWEST WISCONSIN

CITY           SKY/WX    TMP DP  RH WIND       PRES   REMARKS
SUPERIOR ARPT  CLEAR     26  24  93 SW3       30.23S
ASHLAND        CLEAR     26  25  96 S5        30.21R WCI  20
HAYWARD        CLEAR     27  23  85 CALM      30.21R
SIREN          CLEAR     28  25  91 CALM      30.21F
CUMBERLAND     CLEAR     32  27  80 N3        30.20S
RICE LAKE      CLEAR     31  26  84 CALM      30.22R
CHETEK         CLEAR     33  29  84 NW3       30.20S
LADYSMITH      CLEAR     35  27  73 CALM      30.20S
EAU CLAIRE     CLEAR     33  25  72 N3        30.19R
MENOMONIE      CLEAR     35  28  73 CALM      30.20R
NEW RICHMOND   CLEAR     32  28  84 CALM      30.20R
OSCEOLA        CLEAR     31  27  85 CALM      30.24R
$$

WIZ003>005-009-010-017-018-271200-
NORTH CENTRAL WISCONSIN

CITY           SKY/WX    TMP DP  RH WIND       PRES   REMARKS
MANITOWISH WTR CLEAR     32  27  80 NW3       30.16R
ARBOR VITAE    CLEAR     32  29  89 CALM      30.16R
WOODRUFF       CLEAR     32  29  89 CALM      30.16R
RHINELANDER    CLEAR     34  26  72 NW5       30.15R WCI  30
EAGLE RIVER    CLEAR     26  25  96 CALM      30.15R
LAND O LAKES   CLEAR     26  26  97 NW3       30.15S
PHILLIPS       CLEAR     28  25  89 CALM      30.17R
TOMAHAWK       CLEAR     26  24  92 CALM      30.16S
MEDFORD        CLEAR     30  25  82 N3        30.17R
MERRILL        CLEAR     33  28  82 NW5       30.17R WCI  29
$$

WIZ029-030-035-036-043>047-271200-
CENTRAL WISCONSIN

CITY           SKY/WX    TMP DP  RH WIND       PRES   REMARKS
WAUSAU         CLEAR     36  30  79 NW9       30.14R WCI  29
MOSINEE        CLEAR     34  30  86 NW8       30.15R WCI  27
MARSHFIELD     CLEAR     33  29  85 NW7       30.16R WCI  27
STEVENS POINT  CLEAR     28  24  84 CALM      30.15R
WAUPACA        CLEAR     36  29  76 NW3       30.13R
WAUTOMA        CLEAR     31  28  88 CALM      30.14R
WISC RAPIDS    CLEAR     34  27  75 CALM      30.16R
CAMP DOUGLAS   CLEAR     26  26  99 W2        30.15R
$$

WIZ011>013-019>022-031-037>040-048>050-271200-
NORTHEAST WISCONSIN

CITY           SKY/WX    TMP DP  RH WIND       PRES   REMARKS
ANTIGO         CLEAR     32  27  83 NW5       30.14R WCI  27
SHAWANO        CLEAR     35  29  79 CALM      30.13R
OCONTO         CLEAR     37  29  73 CALM      30.11R
STURGEON BAY   CLEAR     37  28  70 N8        30.12R WCI  31
GREEN BAY      CLEAR     38  29  70 NW7       30.11R WCI  33
MANITOWOC      CLEAR     39  31  72 NW6       30.10R WCI  35
APPLETON       CLEAR     37  28  70 NW8       30.12R WCI  31
CLINTONVILLE   CLEAR     34  28  80 NW3       30.12R
OSHKOSH        CLEAR     39  30  70 NW6       30.11R WCI  35
$$

WIZ032>034-041-042-053>061-271200-
SOUTHWEST WISCONSIN

CITY           SKY/WX    TMP DP  RH WIND       PRES   REMARKS
LA CROSSE      CLEAR     39  31  72 NW5       30.15R
SPARTA         CLEAR     28  24  87 CALM      30.16S
VIROQUA        CLEAR     35  28  75 CALM      30.13R
BOSCOBEL       FAIR      31  27  85 CALM      30.14S
PRAIRIE DU CHI CLEAR     34  29  83 CALM      30.14R
PLATTEVILLE    CLEAR     34  29  80 N6        30.11R WCI  29
$$

WIZ056-057-062-063-064-067-068-271200-
SOUTH CENTRAL WISCONSIN

CITY           SKY/WX    TMP DP  RH WIND       PRES   REMARKS
REEDSBURG      CLEAR     34  30  85 CALM      30.13R
BARABOO/DELLS  CLEAR     32  28  83 NW3       30.13R
LONE ROCK      CLEAR     33  29  85 CALM      30.13R
MINERAL POINT  CLEAR     36  30  80 CALM      30.11R
MADISON        CLEAR     32  28  85 NW5       30.10S WCI  27
MIDDLETON      CLEAR     33  30  87 CALM      30.11S
WATERTOWN      CLEAR     35  33  93 N6        30.09S WCI  30
MONROE         CLEAR     37  30  75 N6        30.09R WCI  33
JANESVILLE     CLEAR     34  28  80 NW5       30.08S WCI  30
$$

WIZ051-052-058>065-066-070>072-271200-
SOUTHEAST WISCONSIN

CITY           SKY/WX    TMP DP  RH WIND       PRES   REMARKS
MILWAUKEE      CLEAR     41  29  62 N9        30.08R
WAUKESHA       CLEAR     36  28  75 NW5       30.09S WCI  32
MILWAUKEE/TIMM CLEAR     37  28  70 N8        30.09R WCI  31
RACINE         CLEAR     41  30  65 N13       30.07F
BURLINGTON     CLEAR     35  29  80 N8        30.07S WCI  28
KENOSHA        CLEAR     38  30  73 N7        30.06S WCI  33
FOND DU LAC    CLEAR     35  30  82 NW8       30.11R WCI  29
SHEBOYGAN      CLEAR     38  30  73 NW8       30.09R WCI  32
WEST BEND      CLEAR     36  28  75 NW6       30.09R WCI  31
JUNEAU         CLEAR     34  30  84 N6        30.11S WCI  29
$$

LSZ147-162-271200-
LAKE SUPERIOR

STATION/POSITION TIME  TEMP    WIND        PRES    WAVE
                       AIR SEA DIR/SP/G            HT/PER
                 (UTC) (F)     (DEG/KT/KT) (MB)    (FT/S)
W MID LAKE BUOY  1050   37 35  330/  6/  6 1023.9R   0
DEVILS ISLAND    1100   36     250/  9/  9 1023.9R
PORT WING        1040   29     160/  3/  3 1023.4R
SAXON HARBOR     1040   29     190/  1/  4 1022.4R
$$

LMZ867-665-643>646-271200-
LAKE MICHIGAN

STATION/POSITION TIME  TEMP    WIND        PRES    WAVE
                       AIR SEA DIR/SP/G            HT/PER
                 (UTC) (F)     (DEG/KT/KT) (MB)    (FT/S)
CHAMBERS ISLAND  1000   38     300/  5/  8 1019.3S
NORTHPORT PIER   1000   40     320/  9/ 12 1018.6S
SISTER BAY       0947   39      10/ 10/ 11   N/A
KEWAUNEE LAKESHO 1000   38     310/  5/  7 1017.9F
SHEBOYGAN LAKESH 1100   41     320/ 10/ 12 1019.6R
PORT WASHINGTON  1000   42     320/  6/  9 1019.3S
MILWAUKEE LAKESH 1000   42     340/ 11/ 13   N/A
KENOSHA   LAKESH 1100   43     350/ 13/ 16 1017.6S
$$

TC  - TEMPERATURE IN CELSIUS
VSB - VISIBILITY IN STATUTE MILES
WCI - WIND CHILL INDEX
HX  - HEAT INDEX




USA.gov is the U.S. government's official web portal to all federal, state and local government web resources and services.